www.pogodaiklimat.ru

Погода и климат >> Архив погоды >> Кувейт >> Kuwait


АРХИВ ПОГОДЫ в Kuwait

Время (UTC), дата Ветер
(напр.,м/с)
 
Видим.   Явления Облачность Т
(С)
Тd
(С)
f
(%)
Тe
(С)
Тes
(С)
Комфортность P
(гПа)
Po
(гПа)
Тmin
(С)
Tmax
(С)
R
(мм)
R24
(мм)
S
(см)
21 7.08 С 11 3500 м пыльный позёмок ясно +37.6 +9.6 18 +36 +36 очень
жарко
996.2 996.0 +35.6 +48.3
00 8.08 С 8 10 км ясно +35.5 +9.5 21 +34 +34 очень
жарко
996.2 996.0
03 8.08 С 9 10 км 3/0
[Ci fib]
+35.0 +9.9 22 +34 +34 очень
жарко
996.5 997.0
06 8.08 С 11 10 км ясно +38.3 +10.7 19 +37 +37 очень
жарко
997.1 997.0
09 8.08 С 12 5000 м пыльный позёмок ясно +43.5 +10.4 14 +42 +42 опасность
перегрева
996.6 997.0
12 8.08 С 11 6000 м пыльный позёмок ясно +46.1 +9.8 12 +45 +45 опасность
перегрева
995.1 995.0
15 8.08 С 9 6000 м пыльный позёмок ясно +44.2 +10.7 14 +43 +43 опасность
перегрева
994.8 995.0
18 8.08 С 10 3000 м пыльный позёмок ясно +40.7 +10.5 17 +40 +40 очень
жарко
996.7 997.0
21 8.08 С 8 4000 м пыль ясно +38.2 +12.4 21 +38 +38 очень
жарко
996.8 997.0 +34.8 +46.8
00 9.08 С 5 10 км ясно +35.7 +12.9 25 +36 +36 очень
жарко
996.8 997.0
03 9.08 ЮЗ 2 5000 м мгла 3/0
[Ac trans]
+31.5 +11.0 28 +31 +32 жарко 998.7 999.0
06 9.08 С 6 10 км 3/0
[Ac trans]
+38.8 +11.5 20 +38 +42 очень
жарко
999.8 1000.0
09 9.08 С 9 10 км 4/0
[Ac trans]
+43.8 +9.4 13 +42 +43 опасность
перегрева
998.7 999.0
12 9.08 С 8 10 км 4/0
[Ac trans]
+46.1 +9.8 12 +45 +46 опасность
перегрева
997.4 997.0
15 9.08 С 7 7000 м мгла 4/0
[Ac trans]
+44.8 +10.8 14 +44 +44 опасность
перегрева
997.2 997.0
18 9.08 С 8 5000 м мгла 4/0
[Ac trans]
+41.5 +12.7 18 +41 +41 опасность
перегрева
999.5 1000.0
21 9.08 С 7 10 км ясно +38.9 +9.9 17 +37 +37 очень
жарко
1000.2 1000.0 +31.5 +47.0
00 10.08 СЗ 3 10 км ясно +35.5 +8.5 19 +34 +34 очень
жарко
1000.2 1000.0
03 10.08 З 3 10 км ясно +33.2 +8.1 21 +32 +32 жарко 1001.4 1001.0
06 10.08 С 7 10 км 3/0
[Ci fib]
+39.0 +10.4 18 +38 +41 очень
жарко
1002.8 1003.0
09 10.08 С 8 10 км ясно +43.8 +9.8 13 +42 +45 опасность
перегрева
1001.7 1002.0
12 10.08 С 8 10 км ясно +45.1 +9.8 13 +44 +46 опасность
перегрева
999.8 1000.0
15 10.08 С 6 10 км ясно +44.1 +9.1 13 +42 +43 опасность
перегрева
999.5 1000.0
18 10.08 СЗ 7 10 км ясно +41.2 +6.4 12 +39 +39 очень
жарко
1001.1 1001.0
21 10.08 С 6 7000 м мгла ясно +38.5 +9.2 17 +37 +37 очень
жарко
1001.5 1002.0 +32.1 +46.0
00 11.08 С 5 8000 м мгла ясно +36.2 +10.0 20 +35 +35 очень
жарко
1000.9 1001.0
03 11.08 З 2 5000 м мгла 3/0
[Ci fib]
+31.2 +7.8 23 +30 +31 жарко 1001.8 1002.0
06 11.08 С 6 10 км 1/0
[Ci fib]
+40.3 +9.6 16 +39 +43 очень
жарко
1002.2 1002.0
09 11.08 С 9 10 км 3/0
[Ci fib]
+43.8 +9.5 13 +42 +44 опасность
перегрева
1001.2 1001.0
12 11.08 С 9 10 км ясно +45.5 +8.5 11 +43 +45 опасность
перегрева
999.0 999.0
15 11.08 С 7 10 км ясно +44.2 +10.9 14 +43 +43 опасность
перегрева
998.7 999.0
18 11.08 С 6 10 км ясно +41.3 +9.3 15 +40 +40 очень
жарко
1000.1 1000.0
21 11.08 С 6 10 км ясно +38.2 +8.7 17 +36 +36 очень
жарко
1001.0 1001.0 +30.8 +46.6
00 12.08 С 4 10 км ясно +35.7 +9.8 21 +35 +35 очень
жарко
1000.3 1000.0
03 12.08 З 2 10 км ясно +31.2 +7.3 22 +30 +30 жарко 1000.5 1001.0
06 12.08 С 7 10 км ясно +41.2 +8.9 14 +39 +43 очень
жарко
1000.8 1001.0
09 12.08 С 9 27 км ясно +45.3 +8.4 11 +43 +45 опасность
перегрева
999.7 1000.0
12 12.08 С 10 10 км ясно +46.3 +7.9 10 +44 +44 опасность
перегрева
997.4 997.0
15 12.08 С 8 10 км ясно +44.4 +9.6 13 +43 +43 опасность
перегрева
996.4 996.0
18 12.08 С 7 10 км ясно +41.5 +8.6 14 +39 +39 очень
жарко
997.6 998.0
21 12.08 СЗ 11 8000 м пыльный позёмок ясно +38.9 +7.7 15 +37 +37 очень
жарко
996.6 997.0 +31.2 +46.9
00 13.08 С 9 10 км ясно +36.6 +9.7 20 +35 +35 очень
жарко
996.8 997.0
03 13.08 С 11 8000 м пыльный позёмок ясно +35.2 +10.6 22 +34 +34 очень
жарко
996.9 997.0
06 13.08 С 9 8000 м пыльный позёмок ясно +38.3 +10.4 19 +37 +38 очень
жарко
997.6 998.0
09 13.08 С 12 2500 м пыльный позёмок ясно +43.7 +10.0 14 +42 +42 опасность
перегрева
995.9 996.0
12 13.08 С 11 1300 м пыльный позёмок ясно +44.2 +9.1 13 +43 +43 опасность
перегрева
994.6 995.0
15 13.08 С 10 1300 м пыльный позёмок ясно +41.9 +10.2 15 +40 +40 очень
жарко
994.5 995.0
18 13.08 СЗ 9 2500 м пыльный позёмок ясно +39.5 +9.2 16 +38 +38 очень
жарко
995.7 996.0
21 13.08 С 6 7000 м мгла ясно +37.0 +9.5 19 +36 +36 очень
жарко
996.2 996.0 +34.1 +46.1
00 14.08 СЗ 5 10 км ясно +33.9 +7.7 20 +32 +32 жарко 996.2 996.0
03 14.08 СЗ 3 10 км ясно +31.8 +6.0 20 +30 +30 жарко 997.4 997.0
06 14.08 СЗ 9 10 км ясно +39.8 +6.5 13 +37 +39 очень
жарко
997.9 998.0
09 14.08 С 9 8000 м пыльный позёмок ясно +42.6 +7.9 13 +41 +43 опасность
перегрева
997.4 997.0
12 14.08 С 8 6000 м мгла ясно +44.6 +7.1 11 +42 +44 опасность
перегрева
995.8 996.0
15 14.08 СЗ 8 4000 м пыль ясно +42.5 +8.4 13 +40 +40 очень
жарко
996.2 996.0
18 14.08 СЗ 7 8000 м мгла ясно +39.4 +7.1 14 +37 +37 очень
жарко
998.2 998.0

 

Местоположение метеостанции Kuwait (Кувейт): широта 29.22 долгота 47.97 высота над уровнем моря 48 м.

В архиве по умолчанию представлена погода в Kuwait за последнюю неделю. Архивные данные за месяц целиком и за предыдущие месяцы, начиная с января 2011 года, Вы можете получить, выбрав интересующий диапазон дат из раскрывающегося списка и нажав кнопку "Ввод!".


*Определитесь, кто Вы:
робот инопланетянин человек

Внимание! Время в таблицах - всемирное. Для получения местного времени необходимо прибавить поправку, которая в Kuwait равна 3 ч.

Смотрите также архив погоды в соседних городах и на ближайших метеорологических станциях:

Погода в Experimental Farm (Кувейт) (8 км)
Погода в Kuwait City (Кувейт) (14 км)
Погода в Al-Shuaiba (Кувейт) (19 км)
Погода в Sulaibiya (Кувейт) (25 км)
Погода в Jahra (Кувейт) (31 км)
Погода в Failaka Island (Кувейт) (41 км)
Погода в Minagish (Кувейт) (46 км)
Погода в Juluiah Port (Кувейт) (49 км)
Погода в Jal Aliyah (Кувейт) (58 км)
Погода в Sabriyah (Кувейт) (60 км)

Пояснения к столбцам:

Ветер - указаны скорость ветра в м/с - средняя за 10 мин, порывы в срок и между сроками (в фигурных скобках) и направление, откуда дует ветер: С - северный, СВ - северо-восточный, В - восточный, ЮВ - юго-восточный, Ю - южный, ЮЗ - юго-западный, З - западный, СЗ - северо-западный.
Видимость - горизонтальная дальность видимости в метрах или километрах. При видимости от 1 до 10 км при отсутствии осадков обычно наблюдается дымка, при ухудшении видимости до 1 км и менее - туман. В сухую погоду видимость может ухудшаться дымом, пылью или мглою.
Явления - указаны атмосферные явления, наблюдавшиеся в срок или в последний час перед сроком; фигурными скобками обозначены явления, наблюдавшиеся между сроками (за 1-3 часа до срока); квадратными скобками обозначены град или гололедные отложения с указанием их диаметра в мм.
Облачность - указаны через наклонную черту общая и нижняя облачность в баллах и высота нижней границы облаков в метрах; квадратными скобками обозначены формы облаков: Ci - перистые, Cs - перисто-слоистые, Cc - перисто-кучевые, Ac - высококучевые, As - высокослоистые, Sc - слоисто-кучевые, Ns - слоисто-дождевые, Cu - кучевые, Cb - кучево-дождевые. Подробнее классификацию облаков см. в Атласе облаков (PDF).
T - Температура воздуха - температура, измеренная на высоте 2 м над землей.
Td - Температура точки росы - температура, при понижении до которой содержащийся в воздухе водяной пар достигнет насыщения.
f - Относительная влажность воздуха - влажноcть воздуха, измеренная на высоте 2 м над землей.
Te - Эффективная температура - температура, которую ощущает одетый по сезону человек в тени. Характеристика душности погоды. При расчете учитывается влияние влажности воздуха и скорости ветра на теплоощущения человека.
Tes - Эффективная температура на солнце - температура, которую ощущает человек, с поправкой на солнечный нагрев. Характеристика знойности погоды. Зависит от высоты солнца над горизонтом, облачности и скорости ветра. Ночью, в пасмурную погоду, а также при ветре 12 м/с и более поправка равна нулю.
P - Атмосферное давление - приведенное к уровню моря атмосферное давление.
Po - Атмосферное давление - измеренное на уровне метеостанции атмосферное давление.
Tmin - Минимальная температура - минимум температуры воздуха на высоте 2 м над землей.
Tmax - Максимальная температура - максимум температуры воздуха на высоте 2 м над землей.
R - Количество осадков - Количество выпавших осадков за период времени, мм. При наведении курсора мыши на число - период времени, за который выпало указанное количество осадков.
R24 - Количество осадков - Количество выпавших осадков за 24 часа, мм.
S - Снежный покров - Высота снежного покрова, см. При наведении курсора мыши на число - состояние снежного покрова и степень покрытия местности в баллах.